Falls City, NE

4:16 PM CDT on April 27, 2017 (GMT -0500)
Brenner

Weather History for KFNB - February, 2013

Change the Weather History Date:

Thursday, February 21, 2013

  Actual Average Record
Temperature  
Mean Temperature 22 °F -  
Max Temperature 24 °F 45 °F 74 °F (1977)
Min Temperature 19 °F 24 °F 0 °F (1978)
Degree Days  
Heating Degree Days 44    
Moisture  
Dew Point 17 °F    
Average Humidity 85    
Maximum Humidity 93    
Minimum Humidity 51    
Precipitation  
Precipitation 0.00 in - - ()
Sea Level Pressure  
Sea Level Pressure 29.92 in    
Wind  
Wind Speed 15 mph (ENE)    
Max Wind Speed 25 mph    
Max Gust Speed 34 mph    
Visibility 3 miles    
Events Fog , Snow    
Averages and records for this station are not official NWS values.
T = Trace of Precipitation, MM = Missing Value Source: NWS Daily Summary

Daily Weather History Graph

Daily Weather History Graph

Search for Another Location

Airport or City:

Trip Planner

Search our weather history database for the weather conditions in past years. The results will help you decide how hot, cold, wet, or windy it might be!

Date:

Astronomy

Feb. 21, 2013 Rise Set
Actual Time 7:06 AM CST 6:05 PM CST
Civil Twilight 6:39 AM CST 6:32 PM CST
Nautical Twilight 6:07 AM CST 7:04 PM CST
Astronomical Twilight 5:36 AM CST 7:35 PM CST
Moon 2:21 PM CST (2/21) 4:12 AM CST (2/21)
Length of Visible Light 11h 53m
Length of Day
10h 58m
Waxing Gibbous, 84% of the Moon is Illuminated
Feb 21
Waxing Gibbous
Feb 25
Full
Mar 4
Last Quarter
Mar 11
New
Mar 19
First Quarter

Hourly Weather History & Observations

Time (CST) Temp. Windchill Dew Point Humidity Pressure Visibility Wind Dir Wind Speed Gust Speed Precip Events Conditions
12:53 AM 24.1 °F 13.7 °F 8.1 °F 51% 30.24 in 10.0 mi East 10.4 mph - N/A   Overcast
1:53 AM 23.0 °F 11.1 °F 9.0 °F 55% 30.23 in 10.0 mi East 12.7 mph - N/A   Overcast
2:53 AM 21.9 °F 7.8 °F 8.1 °F 55% 30.15 in 10.0 mi East 17.3 mph - N/A   Mostly Cloudy
3:53 AM 21.2 °F 6.4 °F 8.6 °F 58% 30.11 in 10.0 mi East 18.4 mph 26.5 mph N/A   Overcast
4:53 AM 19.9 °F 5.7 °F 10.0 °F 65% 30.11 in 10.0 mi East 16.1 mph - N/A   Overcast
5:53 AM 21.0 °F 6.2 °F 10.0 °F 63% 30.11 in 10.0 mi East 18.4 mph - N/A   Overcast
6:53 AM 21.0 °F 7.6 °F 10.0 °F 63% 30.11 in 10.0 mi East 15.0 mph 23.0 mph N/A   Overcast
7:53 AM 21.0 °F 7.1 °F 10.9 °F 65% 30.09 in 10.0 mi East 16.1 mph - N/A   Overcast
8:25 AM 19.4 °F 4.5 °F 12.2 °F 74% 30.08 in 2.0 mi East 17.3 mph - 0.00 in Snow Light Snow
8:32 AM 19.4 °F 4.5 °F 14.0 °F 80% 30.07 in 1.0 mi East 17.3 mph - 0.00 in Snow Light Snow
8:40 AM 19.4 °F 5.0 °F 15.8 °F 86% 30.05 in 0.5 mi ENE 16.1 mph 24.2 mph 0.00 in Snow Snow
8:53 AM 19.0 °F 3.2 °F 16.0 °F 88% 30.09 in 0.5 mi ENE 19.6 mph 25.3 mph 0.00 in Fog , Snow Snow
9:23 AM 19.4 °F 4.5 °F 15.8 °F 86% 30.03 in 0.2 mi East 17.3 mph 23.0 mph 0.00 in Fog , Snow Snow
9:53 AM 19.9 °F 5.2 °F 16.0 °F 85% 30.04 in 0.2 mi ENE 17.3 mph - 0.00 in Fog , Snow Snow
9:59 AM 19.4 °F 3.6 °F 15.8 °F 86% 30.00 in 0.5 mi ENE 19.6 mph 25.3 mph 0.00 in Fog , Snow Snow
10:03 AM 19.4 °F 2.5 °F 15.8 °F 86% 29.98 in 0.2 mi ENE 23.0 mph 27.6 mph 0.00 in Fog , Snow Snow
10:16 AM 19.4 °F 2.5 °F 15.8 °F 86% 29.96 in 0.5 mi ENE 23.0 mph 28.8 mph 0.00 in Fog , Snow Snow
10:53 AM 19.9 °F 3.9 °F 17.1 °F 89% 29.99 in 0.5 mi ENE 20.7 mph - 0.00 in Fog , Snow Snow
11:09 AM 19.4 °F 2.1 °F 17.6 °F 93% 29.92 in 0.2 mi ENE 24.2 mph 31.1 mph 0.00 in Fog , Snow Snow
11:23 AM 21.2 °F 4.2 °F 17.6 °F 86% 29.91 in 0.2 mi ENE 25.3 mph 34.5 mph 0.00 in Fog , Snow Snow
11:37 AM 21.2 °F 5.2 °F 17.6 °F 86% 29.92 in 0.5 mi ENE 21.9 mph 31.1 mph 0.00 in Fog , Snow Snow
11:46 AM 21.2 °F 5.6 °F 17.6 °F 86% 29.91 in 0.5 mi East 20.7 mph 32.2 mph 0.00 in Fog , Snow Snow
11:53 AM 21.9 °F 5.1 °F 18.0 °F 85% 29.94 in 0.5 mi East 25.3 mph 34.5 mph 0.00 in Fog , Snow Snow
12:06 PM 21.2 °F 4.9 °F 17.6 °F 86% 29.90 in 1.0 mi East 23.0 mph 33.4 mph 0.00 in Snow Light Snow
12:23 PM 21.2 °F 6.0 °F 17.6 °F 86% 29.90 in 1.0 mi East 19.6 mph 29.9 mph 0.00 in Snow Light Snow
12:26 PM 21.2 °F 6.0 °F 19.4 °F 93% 29.90 in 0.8 mi East 19.6 mph 29.9 mph 0.00 in Snow Light Snow
12:53 PM 23.0 °F 8.0 °F 19.0 °F 85% 29.92 in 0.8 mi East 20.7 mph 27.6 mph 0.00 in Snow Light Snow
1:20 PM 23.0 °F 8.7 °F 19.4 °F 86% 29.87 in 0.8 mi East 18.4 mph 27.6 mph 0.00 in Snow Light Snow
1:53 PM 23.0 °F 8.3 °F 19.9 °F 88% 29.89 in 0.5 mi East 19.6 mph 26.5 mph 0.00 in Fog , Snow Snow
2:43 PM 23.0 °F 10.6 °F 19.4 °F 86% 29.86 in 0.5 mi East 13.8 mph - 0.00 in Fog , Snow Light Snow
2:53 PM 23.0 °F 10.1 °F 19.9 °F 88% 29.89 in 0.5 mi East 15.0 mph 25.3 mph 0.00 in Fog , Snow Light Snow
3:09 PM 23.0 °F 8.7 °F 19.4 °F 86% 29.84 in 0.5 mi East 18.4 mph - 0.00 in Fog , Snow Light Snow
3:16 PM 23.0 °F 8.0 °F 19.4 °F 86% 29.84 in 0.5 mi East 20.7 mph 25.3 mph 0.00 in Fog , Snow Light Snow
3:27 PM 23.0 °F 10.1 °F 19.4 °F 86% 29.84 in 1.0 mi ENE 15.0 mph - 0.00 in Snow Light Snow
3:41 PM 23.0 °F 9.6 °F 19.4 °F 86% 29.83 in 1.5 mi ENE 16.1 mph 23.0 mph 0.00 in Snow Light Snow
3:53 PM 23.0 °F 8.7 °F 19.9 °F 88% 29.86 in 1.5 mi ENE 18.4 mph 23.0 mph 0.00 in Snow Light Snow
4:03 PM 23.0 °F 10.1 °F 19.4 °F 86% 29.82 in 1.5 mi ENE 15.0 mph 23.0 mph 0.00 in Snow Light Snow
4:28 PM 23.0 °F 10.1 °F 19.4 °F 86% 29.82 in 0.8 mi ENE 15.0 mph - N/A Snow Light Snow
4:38 PM 23.0 °F 9.6 °F 19.4 °F 86% 29.83 in 0.8 mi ENE 16.1 mph - 0.00 in Snow Light Snow
4:43 PM 23.0 °F 11.7 °F 19.4 °F 86% 29.83 in 1.0 mi ENE 11.5 mph 20.7 mph 0.00 in Snow Light Snow
4:47 PM 23.0 °F 10.6 °F 19.4 °F 86% 29.83 in 1.2 mi ENE 13.8 mph - 0.00 in Snow Light Snow
4:53 PM 21.9 °F 9.2 °F 19.9 °F 92% 29.87 in 1.0 mi ENE 13.8 mph - 0.00 in Snow Light Snow
5:08 PM 21.2 °F 8.3 °F 19.4 °F 93% 29.83 in 0.5 mi ENE 13.8 mph - 0.00 in Fog , Snow Light Snow
5:23 PM 21.2 °F 9.5 °F 19.4 °F 93% 29.83 in 0.2 mi ENE 11.5 mph - 0.00 in Fog , Snow Snow
5:44 PM 21.2 °F 10.1 °F 19.4 °F 93% 29.82 in 0.5 mi ENE 10.4 mph - 0.00 in Fog , Snow Light Snow
5:53 PM 21.9 °F 11.7 °F 19.9 °F 92% 29.86 in 0.5 mi ENE 9.2 mph - 0.00 in Fog , Snow Light Snow
6:11 PM 21.2 °F 9.5 °F 19.4 °F 93% 29.82 in 1.5 mi ENE 11.5 mph - 0.00 in Snow Light Snow
6:16 PM 21.2 °F 10.1 °F 19.4 °F 93% 29.82 in 3.0 mi ENE 10.4 mph - 0.00 in Snow Light Snow
6:49 PM 21.2 °F 10.1 °F 19.4 °F 93% 29.82 in 2.5 mi ENE 10.4 mph - 0.00 in Snow Light Snow
6:53 PM 21.9 °F 10.4 °F 19.0 °F 89% 29.86 in 1.5 mi ENE 11.5 mph - 0.00 in Snow Light Snow
7:14 PM 21.2 °F 11.7 °F 19.4 °F 93% 29.82 in 2.5 mi ENE 8.1 mph - 0.00 in Snow Light Snow
7:19 PM 21.2 °F 10.9 °F 19.4 °F 93% 29.82 in 3.0 mi ENE 9.2 mph - 0.00 in Snow Light Snow
7:53 PM 21.9 °F 13.4 °F 19.9 °F 92% 29.86 in 8.0 mi NE 6.9 mph - 0.00 in Snow Light Snow
8:08 PM 21.2 °F 13.6 °F 19.4 °F 93% 29.82 in 10.0 mi NE 5.8 mph - 0.00 in   Overcast
8:53 PM 21.9 °F 13.4 °F 19.0 °F 89% 29.85 in 8.0 mi NE 6.9 mph - 0.00 in Snow Light Snow
9:27 PM 21.2 °F 13.6 °F 19.4 °F 93% 29.81 in 9.0 mi NE 5.8 mph - 0.00 in   Overcast
9:53 PM 21.9 °F 15.7 °F 19.0 °F 89% 29.84 in 4.0 mi NE 4.6 mph - 0.00 in Snow Light Snow
10:30 PM 21.2 °F 16.4 °F 19.4 °F 93% 29.80 in 1.8 mi NE 3.5 mph - 0.00 in Snow Light Snow
10:38 PM 21.2 °F 14.9 °F 19.4 °F 93% 29.80 in 1.8 mi NE 4.6 mph - 0.00 in Snow Light Snow
10:53 PM 21.9 °F 17.2 °F 19.0 °F 89% 29.83 in 2.5 mi NE 3.5 mph - 0.00 in Snow Light Snow
11:01 PM 21.2 °F 16.4 °F 19.4 °F 93% 29.79 in 3.0 mi NNE 3.5 mph - 0.00 in Snow Light Snow
11:53 PM 21.9 °F 15.7 °F 19.0 °F 89% 29.83 in 8.0 mi NW 4.6 mph - 0.00 in   Overcast